ONEWEB-0057, 45160

Orbit data source: Space-Track

ONEWEB-0057, 45160 is a payload satellite owned by One Web (UK) in LEO that was launched on Thu, 06 Feb 2020 UTC via a SOYUZ-2-1B launch vehicle from the Tyuratam Missile And Space Complex (TTMTR). Payload-class satellites include a variety of spacecraft equipped with specific instruments for various scientific and technological missions. These include communications satellites like Starlink; space stations such as the ISS; scientific satellites like the Hubble; Earth observation satellites from companies like Planet Labs, Umbra, and HawkEye 360; GPS; miniature CubeSats for education and research; and military/defense satellites.

Loading next visibility...
Identifier
45160, 2020-008AF
Orbit
LEO
Country
Flag of UKUK
Related business
Manufacturer
One Web
Mission
Operational Commercial Communications
Bus & Motor
ARROW, Unknown motor
Mass
148 kg wet, ~140 kg dry
Launch date (UTC)
2020-02-06 (6 years ago)
Launch vehicle
SOYUZ-2-1B
Launch site
Tyuratam Missile And Space Complex (TTMTR)
Object type
Payload
Rocket body
Debris
Shape & HBR
Trap Box + 2 Pan, 6.7 m
Radar Cross Section
3.464 m², Large (>1 m²)

Expand to show TLE details & history
Last TLE update: 1 day ago

TLE from 1 day ago
0 ONEWEB-0057
1 45160U 20008AF  25301.40245593  .00000188  00000-0  50233-3 0  9992
2 45160  87.8767  82.4807 0001384  93.9715 266.1570 13.10369791277991
Epoch: 2025-10-28T09:39Z
TLE epoch observation values (Epoch: 2025-10-28T09:39:32.192Z)
Latitude
-0.00007°
Longitude
-99.39389°
Altitude
1,224.687 km
Speed
7.242 km/s
True Right ascension
05h 29m 55s
True Declination
0° 00' 00"
Sunlit
Object was in full shadow at epoch
Visualization orbit readout
Latitude
Unknown
Longitude
Unknown
Altitude
Unknown
Speed
Unknown
Apparent Right ascension
Unknown
Apparent Declination
Unknown
Sunlit
N/A
Visualization observer readout
Local Sidereal Time
07:27:37
Azimuth
Unknown
Elevation
Unknown
Doppler factor
Unknown
Orbital elements
Apogee altitude
1,219.9 km
Perigee altitude
1,217.797 km
Semi-major axis
7,596.986 km
Eccentricity
0.00014
Inclination
87.8767°
RAAN
82.4807°
Arg. of periapsis
93.9715°
True anomaly
266.14118°
Mean anomaly
266.157°
Eccentric anomaly
266.14909°
Mean motion
3.27779 °/min
Orbital period
109.83 mins
BSTAR
0.00050233
Loading maneuver chart data...
Computing Atmospheric mass density...
Loading historical data...
Loading historical data...
Loading historical data...
Loading historical data...
Loading historical data...
Loading historical data...
Loading historical data...

Documentation

Showing up to 5 results
|